{"data":{"norad_id":39241,"intl_designator":"2013-046C","name":"YAOGAN-17 01C","alt_names":[],"object_type":"PAYLOAD","status":"ACTIVE","operator":null,"country":"PRC","launch_date":"2013-09-01","launch_site_code":"JSC","launch_vehicle":null,"mission":null,"orbit_class":"UNKNOWN","rcs_meters":2.744,"size_class":null,"mass_kg":null,"dimensions":null,"purposes":[],"wikipedia_slug":null,"has_3d_model":false,"image_url":null,"decayed_at":null,"tle_current":{"epoch":"2026-05-25T03:10:17.516352Z","epoch_age_seconds":63306,"freshness":"FRESH","line1":"1 39241U 13046C   26145.13214718  .00000045  00000+0  13222-3 0  9999","line2":"2 39241  63.3848 149.1250 0425265  11.3737 349.6539 13.45475655625277","mean_motion":13.45475655,"eccentricity":0.0425265,"inclination_deg":63.3848,"raan_deg":149.125,"arg_perigee_deg":11.3737,"mean_anomaly_deg":349.6539,"bstar":0.00013222,"rev_number":62527,"period_min":107.02534784994,"perigee_km":771.40203159934,"apogee_km":1406.5002805374,"semimajor_km":7467.0881560684,"source":"CELESTRAK","updated_at":"2026-05-25T13:37:55.373514Z"}}}